sat.trackr.live / text

‹ back to catalog

BEIDOU-3 M20 (C42)

NORAD 44865 · 2019-090B

PAYLOAD ACTIVE UNKNOWN

§ Identity

Operator
Country
PRC
Launch date
2019-12-16
Launch site
XICLF
Launch vehicle
Mass (kg)
RCS (m²)

Purposes: nav

External: N2YO · Heavens-Above · Gunter

§ Orbital elements

Epoch: 2026-09-19T20:17:19.222368Z

Period
773.23 min
Inclination
56.6486°
Eccentricity
0.0012975
Mean motion
1.86231559 rev/d
Perigee alt
21,491.8 km
Apogee alt
21,564.2 km
Semi-major
27,906.1 km
B*
0.0000e+0
RAAN
59.7016°
Arg perigee
307.5103°
Mean anomaly
59.3559°
Rev number
4,598

§ Raw data

BEIDOU-3 M20 (C42)1 44865U 19090B   26262.84536137 -.00000009  00000+0  00000+0 0  99992 44865  56.6486  59.7016 0012975 307.5103  59.3559  1.86231559 45987

JSON: /api/v1/satellites/44865 · /tle

For live sub-satellite position, see the globe view (requires WebGL).

§ Visibility from observer

Set your observer location to see the next 7 days of passes ≥ 10°. The values pass through the URL so the page stays shareable.

No JS? Fill the form by hand. The geolocation button needs JavaScript.